Location: Lamoine Observatory
(44.4551°N, 68.3470°W)
Time: 01:34:56
(UTC-05:00)

Daily predictions for brighter satellites

Satellite Brightness Start Highest point End
(mag) Time Altitude Azimuth Time Altitude Azimuth Time Altitude Azimuth
Cosmos 1980 Rocket 4.5 03:01:42 20° E 03:01:42 20° E 03:03:57 10° ESE
USA 234 4.2 03:10:06 10° E 03:14:53 42° ENE 03:14:53 42° ENE
SL-16 R/B 4.2 03:36:20 19° NNE 03:37:43 21° NE 03:41:55 10° E
Cosmos 2322 Rocket 4.2 03:42:27 20° NNE 03:44:06 22° NE 03:48:28 10° E
CZ-4C R/B 3.9 03:53:48 15° SSE 03:57:13 28° ESE 04:02:02 10° NE
Cosmos 2279 Rocket 4.0 04:01:31 72° SE 04:01:31 72° SE 04:07:07 10° S
Cosmos 1697 Rocket 4.2 04:06:25 26° S 04:06:25 26° S 04:08:45 10° SSE
Cosmos 2082 Rocket 3.4 04:10:23 32° NNE 04:10:23 32° NNE 04:13:23 10° NNE
COSMO-SKYMED 1 4.0 04:04:10 10° SE 04:08:05 35° ENE 04:08:21 35° ENE
Lacrosse 5 rocket 4.0 04:13:05 13° SSE 04:13:05 13° SSE 04:13:39 10° SSE
RESURS DK-1 4.2 04:14:29 25° SE 04:14:29 25° SE 04:16:19 10° SSE
Cosmos 1833 Rocket 3.9 04:16:50 29° N 04:16:50 29° N 04:19:38 10° NNE
Cosmos 2180 Rocket 4.4 04:18:25 45° N 04:20:35 88° W 04:26:51 10° S
USA 267 3.2 04:17:03 10° NE 04:23:29 63° NNW 04:24:02 61° WNW
Meteor 2-20 4.4 04:23:30 10° S 04:29:35 82° E 04:35:42 10° N
CZ-4B R/B 4.2 04:25:47 10° N 04:28:53 33° N 04:28:53 33° N
IRS-P2 Rocket 4.4 04:30:26 10° NNE 04:35:41 82° WNW 04:40:59 10° SSW
Cosmos 2360 Rocket 4.0 04:36:48 11° N 04:41:21 26° NE 04:46:02 10° ESE
Cosmos 1980 Rocket 2.3 04:43:32 54° WSW 04:43:32 54° WSW 04:48:59 10° S
PAYLOAD A 4.5 04:44:03 10° NNE 04:49:29 66° ESE 04:54:48 10° S
Nadezhda 4 Rocket 3.8 04:48:10 10° S 04:54:18 83° W 05:00:28 10° N
BREEZE-M DEB (TANK) 4.4 04:54:35 16° SSE 04:55:33 19° SE 04:57:56 10° E
SKYMED 2 3.4 04:51:44 10° S 04:56:04 73° WSW 04:56:58 53° NW
USA 234 3.3 04:52:41 10° SE 04:59:11 67° SW 05:02:14 34° WNW
SeaSat 1 2.7 04:54:28 10° NNE 04:59:11 46° NW 04:59:15 46° WNW
NOAA 6 3.9 04:56:27 10° N 05:01:36 78° WNW 05:06:44 10° SSW
Cosmos 1515 3.7 05:01:43 30° N 05:03:33 77° E 05:07:21 10° SSE
Meteor 2-4 Rocket 3.9 05:06:49 36° NW 05:08:17 43° W 05:13:28 10° SSW
Cosmos 1184 Rocket 4.1 05:05:54 15° N 05:08:18 40° ENE 05:11:28 10° SSE
Meteor 1-11 Rocket 4.1 05:12:22 10° SW 05:17:56 41° WNW 05:23:26 10° N
ATLAS 5 CENTAUR R/B 4.3 05:14:36 10° NNW 05:18:28 18° NNE 05:22:37 10° ENE
CZ-2C R/B 2.3 05:13:36 10° NNE 05:18:30 85° ESE 05:23:13 10° SSW
Feng Yun 1-1 Rocket 4.3 05:12:45 10° N 05:18:30 60° WNW 05:24:05 10° SSW
Timation 2 Rocket 4.2 05:13:04 10° SW 05:19:53 64° WNW 05:26:44 10° NNE
Okean 1-7 Rocket 3.8 05:15:28 10° N 05:19:59 74° E 05:24:32 10° SSE
SL-16 R/B 2.1 05:18:14 19° NNW 05:22:27 75° WSW 05:28:06 10° SSE
IDEFIX/ARIANE 42P 2.5 05:18:29 10° N 05:23:39 67° WNW 05:28:49 10° SSW
Cosmos 773 Rocket 3.9 05:20:37 10° SSW 05:25:42 64° WNW 05:30:52 10° NNE
Cosmos 1300 Rocket 3.9 05:23:27 10° SW 05:27:29 38° WNW 05:31:34 10° N
Cosmos 2322 Rocket 2.2 05:24:18 17° NNW 05:28:42 69° WSW 05:34:20 10° SSE
Cosmos 1680 Rocket 4.0 05:28:14 10° S 05:33:22 64° ESE 05:38:34 10° NNE
Cosmos 1092 Rocket 4.0 05:28:25 10° SSW 05:34:26 59° W 05:40:32 10° N
Cosmos 1025 Rocket 3.0 05:30:50 12° NNW 05:34:45 57° W 05:38:56 10° S
Cosmos 1484 Rocket 3.5 05:34:47 10° NNE 05:38:38 56° E 05:42:24 10° S
EO 1 Del DPAF 4.3 05:36:48 10° SSW 05:39:58 25° W 05:40:29 24° W
Cosmos 1743 3.6 05:39:31 10° S 05:43:12 50° E 05:46:55 10° NNE
COSMO-SKYMED 1 3.7 05:40:53 10° SSW 05:44:20 23° W 05:45:33 20° WNW
Cosmos 1655 Rocket 4.2 05:38:15 10° S 05:44:27 76° E 05:50:45 10° N
Okean-O 3.4 05:41:20 10° N 05:45:10 29° WNW 05:49:00 10° SW
CZ-4C R/B 2.4 05:40:08 10° WSW 05:45:18 51° NW 05:51:17 10° NNE
BREEZE-M DEB (TANK) 2.9 05:40:07 18° WNW 05:45:39 61° N 05:48:18 10° E
Cosmos 2195 Rocket 4.5 05:40:13 10° SSW 05:46:29 68° W 05:52:45 10° N
Cosmos 2026 Rocket 4.0 05:43:20 10° SSW 05:49:34 73° W 05:55:57 10° N
Cosmos 2322 4.2 05:44:58 10° NNW 05:50:37 62° ENE 05:56:13 10° SE
Thor Agena Rocket 3.5 05:46:36 10° S 05:51:37 67° WSW 05:56:42 10° NNW
Cosmos 2082 Rocket 3.8 05:52:17 14° NW 05:52:53 14° NW 05:55:53 10° N
Cosmos 1340 Rocket 4.2 05:49:55 10° N 05:53:39 40° ENE 05:57:24 10° SE
COSMOS 2441 4.4 05:50:30 10° N 05:55:15 56° WNW 05:59:57 10° SSW
Cosmos 1553 Rocket 4.1 05:49:03 10° N 05:55:22 86° E 06:01:31 10° S
Cosmos 1833 Rocket 4.4 05:58:35 12° NW 05:59:15 12° NW 06:01:33 10° NNW
Meteor 1-4 Rocket 3.5 05:57:04 10° SW 06:00:24 28° WNW 06:03:43 10° NNW
Okean 1 Rocket 3.9 05:57:37 10° SW 06:01:24 28° WNW 06:05:13 10° NNW
CZ-4 R/B 2.0 05:57:36 10° NNE 06:01:45 64° ESE 06:05:57 10° S
Cosmos 1500 4.0 06:01:02 10° SW 06:04:25 29° WNW 06:07:49 10° NNW
Cosmos 923 Rocket 4.1 05:59:31 10° SW 06:04:39 54° WNW 06:09:47 10° NNE
USA 267 4.1 06:00:08 10° NE 06:05:49 33° NNW 06:11:23 10° WNW
Aureole 2 Rocket 4.0 06:04:11 10° N 06:07:15 30° ENE 06:10:06 10° SE
AQUARIUS 4.1 06:06:19 10° N 06:10:51 81° WNW 06:15:20 10° SSW
Cosmos 1271 Rocket 2.7 06:08:31 10° S 06:12:17 83° ESE 06:16:04 10° NNE
CORIOLIS 4.2 06:11:06 10° NNE 06:16:29 85° ESE 06:21:50 10° SSW
Cosmos 2333 Rocket 3.7 06:11:31 10° N 06:16:46 34° NE 06:21:58 10° ESE
COSMOS 2428 3.3 06:14:12 10° NNW 06:19:53 61° ENE 06:25:32 10° SE
YAOGAN 1 3.0 06:15:46 10° NNE 06:20:06 68° ESE 06:24:24 10° S
Cosmos 1892 Rocket 3.8 06:15:55 10° NNW 06:20:09 47° W 06:24:19 10° SSW
Cosmos 1626 Rocket 4.2 06:16:15 10° N 06:20:32 59° E 06:24:50 10° SSE
Cosmos 2112 Rocket 4.0 06:15:59 10° SW 06:21:06 59° WNW 06:26:15 10° NNE
SMAP 3.1 06:17:25 10° N 06:22:02 63° WNW 06:26:38 10° SSW
APEX 3.5 06:20:01 10° SW 06:23:19 44° NW 06:27:29 10° NNE
Cosmos 2360 Rocket 2.4 06:20:10 10° NNW 06:25:44 57° WSW 06:31:15 10° S
Cosmos 2056 Rocket 3.5 06:21:32 10° NNW 06:26:41 87° WSW 06:31:50 10° SSE
